#timestamp,LO_Frequency,Hit,StdDev 
1562799615.2,286046998.1,N
1562799635.0,286046998.8,N
1562799636.0,286046998.8,N
1562799655.8,286046996.6,Y
1562799675.6,286046999.3,P
1562799695.5,286046996.5,P
1562799715.3,286047001.2,N
1562799735.1,286047001.0,N
1562799755.9,286046998.4,N
1562799775.7,286047000.9,N
1562799795.6,286046999.2,N
1562799815.4,286046999.0,N
1562799835.2,286047000.3,N
1562799855.1,286047000.0,N
1562799856.0,286047000.0,N
1562799875.8,286047001.6,N
1562799895.7,286047000.0,N
1562799915.5,286046999.9,N
1562799935.3,286046999.9,N
1562799955.2,286047001.5,N
1562799975.0,286047001.6,N
1562799975.9,286047001.6,N
1562799995.8,286047002.1,N
1562800015.6,286047001.6,N
1562800035.4,286047002.3,N
1562800055.3,286047002.6,N
1562800075.1,286047002.5,N
1562800095.8,286047002.8,N
1562800115.7,286046998.9,N
1562800135.5,286046998.2,N
1562800155.4,286046998.6,N
1562800175.2,286046999.8,N
1562800195.0,286046999.9,N
1562800195.9,286046999.9,N
1562800215.8,286046998.9,N
1562800235.6,286046999.5,N
1562800255.5,286046996.5,N
1562800275.3,286046997.1,N
1562800295.1,286046996.6,N
1562800315.9,286046999.3,N
1562800335.7,286046998.6,N
1562800355.6,286046999.6,N
1562800375.4,286046998.2,N
1562800395.2,286047000.7,N
1562800415.1,286046998.6,N
1562800416.0,286046998.6,N
1562800435.8,286046998.9,N
1562800455.6,286046999.3,N
1562800475.5,286047000.8,N
1562800495.8,286047000.4,N
1562800515.6,286047001.2,N
1562800535.5,286047001.1,N
1562800555.3,286047000.9,N
1562800575.2,286047001.0,N
1562800595.9,286046998.8,N
1562800615.7,286046996.5,N
1562800635.6,286046998.9,N
1562800655.4,286046999.7,N
1562800675.2,286047002.4,N
1562800695.1,286046999.7,N
1562800696.0,286046999.7,N
1562800715.8,286047002.3,N
1562800735.7,286047004.1,N
1562800755.5,286047003.1,N
1562800775.3,286047004.3,N
1562800795.2,286047001.9,N
1562800815.0,286047005.6,N
1562800815.9,286047005.6,N
1562800835.8,286047005.6,N
1562800855.6,286047003.1,N
1562800875.4,286047003.7,N
1562800895.3,286047003.2,N
1562800915.1,286047004.4,N
1562800935.8,286047004.3,N
1562800955.7,286047002.1,N
1562800975.5,286047004.1,N
1562800995.4,286047004.3,N
1562801015.2,286047003.6,N
1562801035.0,286047003.2,N
1562801035.9,286047003.2,N
1562801055.8,286047003.3,N
1562801075.6,286047003.7,N
1562801095.5,286047004.2,N
1562801115.3,286047001.3,N
1562801135.1,286047005.6,N
1562801155.9,286047004.9,N
1562801175.7,286047006.6,Y
1562801195.6,286047003.5,P
1562801215.4,286047003.9,P
1562801235.2,286047003.5,P
1562801255.1,286047005.2,Y
1562801256.0,286047005.2,P
1562801275.8,286047001.3,N
1562801295.7,286047000.1,N
1562801315.5,286047002.5,N
1562801335.3,286047002.4,N
1562801355.2,286047000.3,N
1562801375.0,286046998.2,N
1562801375.9,286046998.2,N
1562801395.8,286047000.5,N
1562801415.6,286046999.0,N
1562801435.4,286046998.6,N
1562801455.3,286047000.8,N
1562801475.1,286046998.2,N
1562801495.9,286046996.7,N
1562801515.7,286047001.1,N
1562801535.5,286047000.0,N
1562801555.4,286047000.4,N
1562801575.2,286047000.7,N
1562801595.0,286047001.1,N
1562801595.9,286047001.1,N
1562801615.8,286047000.5,N
1562801635.6,286046998.3,N
1562801655.5,286046999.4,N
1562801675.3,286046998.4,N
1562801695.1,286046998.1,N
1562801715.9,286046998.6,N
1562801735.7,286046999.3,N
1562801755.6,286046999.4,N
1562801775.4,286047000.8,N
1562801795.2,286047000.8,N
1562801815.1,286047000.0,N
1562801816.0,286047000.0,N
1562801835.8,286046998.3,N
1562801855.6,286046998.7,N
1562801875.5,286046998.1,N
1562801895.3,286046998.8,N
1562801915.2,286046998.6,N
1562801935.9,286046998.7,N
1562801955.7,286046998.6,N
1562801975.6,286046998.5,N
1562801995.4,286047001.1,N
1562802015.8,286046999.7,N
1562802035.6,286047001.1,N
1562802055.5,286047000.0,N
1562802075.3,286047002.6,N
1562802095.1,286047001.0,N
1562802115.9,286047000.5,N
1562802135.7,286047000.6,N
1562802155.5,286047002.3,N
1562802175.4,286047004.4,Y
1562802195.2,286047001.4,P
1562802215.1,286047000.4,N
1562802216.0,286047000.4,N
1562802235.8,286047000.3,N
1562802255.6,286047002.1,Y
1562802275.5,286047000.6,P
1562802295.3,286047001.1,P
1562802315.2,286046998.3,P
1562802335.9,286046999.1,N
1562802355.7,286046999.3,N
1562802375.6,286047000.3,N
1562802395.4,286047001.8,N
1562802415.3,286047004.0,Y
1562802435.1,286047001.4,P
1562802436.0,286047001.4,N
1562802455.8,286047000.6,N
1562802475.7,286047000.5,N
1562802495.5,286047000.5,N
1562802515.3,286047000.9,N
1562802535.2,286047000.9,N
1562802555.0,286047000.5,N
1562802555.9,286047000.5,N
1562802575.8,286046998.6,Y
1562802595.6,286046999.3,P
1562802615.4,286046999.4,N
1562802635.3,286046997.8,P
1562802655.1,286046996.3,Y
1562802675.9,286046996.0,P
1562802695.7,286046995.1,N
1562802715.5,286046995.2,N
1562802735.4,286046996.7,N
1562802755.2,286046996.5,N
1562802775.1,286046995.3,Y
1562802776.0,286046995.3,P
1562802795.8,286046999.4,N
1562802815.6,286046997.1,N
1562802835.5,286046999.3,N
1562802855.3,286046998.5,N
1562802875.1,286047000.8,N
1562802895.9,286047001.1,N
1562802915.7,286046999.6,N
1562802935.6,286046996.9,N
1562802955.4,286046999.4,N
1562802975.2,286046996.8,N
1562802995.1,286046998.2,N
1562802996.0,286046998.2,N
1562803015.8,286047000.7,N
1562803035.7,286046998.2,N
1562803055.5,286046998.1,N
1562803075.3,286046998.7,N
1562803095.2,286046997.0,N
1562803115.0,286046997.1,N
1562803115.9,286046997.1,N
1562803135.8,286046997.0,N
1562803155.6,286046996.7,N
1562803175.4,286046997.1,N
1562803195.3,286046997.0,N
